Overview Statistics Trail Chart Weather Telemetry Raw packets
 

This is the latest recevied weather packets stored in our database for station/object K0APR. If no packets are shown the sender has not sent any weather packets the latest 10 day(s).

<< 106 107 108 109 110 111 112 >>
Time Temp. Humidity Pressure Rain* Wind** Luminosity Snow
1787857809 25.56° C 55% 1020.3 hPa 0 mm - 603 W/m² -
1787857504 25.56° C 54% 1020.3 hPa 0 mm - 597 W/m² -
1787857202 24.44° C 55% 1020.6 hPa 0 mm - 615 W/m² -
1787856897 25.56° C 54% 1020.3 hPa 0 mm - 592 W/m² -
1787856597 25° C 54% 1020.3 hPa 0 mm - 617 W/m² -
1787856292 25.56° C 53% 1020.3 hPa 0 mm - 636 W/m² -
1787855988 25° C 55% 1020.3 hPa 0 mm - 637 W/m² -
1787855687 25.56° C 54% 1020.3 hPa 0 mm - 612 W/m² -
1787855382 25° C 56% 1020.6 hPa 0 mm - 632 W/m² -
1787855078 25° C 56% 1020.6 hPa 0 mm - 645 W/m² -
1787854773 25° C 57% 1020.6 hPa 0 mm - 677 W/m² -
1787854472 25° C 56% 1020.3 hPa 0 mm - 660 W/m² -
1787854168 24.44° C 57% 1020.3 hPa 0 mm - 668 W/m² -
1787853863 24.44° C 57% 1021.1 hPa 0 mm - 238 W/m² -
1787853561 25° C 55% 1021.1 hPa 0 mm - 597 W/m² -
1787853260 25° C 56% 1020.6 hPa 0 mm - 564 W/m² -
1787852955 24.44° C 57% 1021.1 hPa 0 mm - 543 W/m² -
1787852650 23.89° C 58% 1021.1 hPa 0 mm - 561 W/m² -
1787852349 24.44° C 57% 1021.1 hPa 0 mm - 552 W/m² -
1787852049 24.44° C 58% 1021.1 hPa 0 mm - 562 W/m² -
1787851749 24.44° C 58% 1021.1 hPa 0 mm - 594 W/m² -
1787851443 23.89° C 60% 1021.1 hPa 0 mm - 606 W/m² -
1787851138 23.89° C 58% 1021.1 hPa 0 mm - 609 W/m² -
1787850833 23.89° C 58% 1021.1 hPa 0 mm - 615 W/m² -
1787850530 23.89° C 59% 1021.1 hPa 0 mm - 625 W/m² -

* Rain latest hour (hover to see other rain measurements)
** Current wind speed in m/s (hover to see current wind gust speed)